Portland Troutdale, OR

1:42 PM PDT on April 26, 2017 (GMT -0700)
Portland-Troutdale

Weather History for KTTD - November, 2012

Change the Weather History Date:

Friday, November 9, 2012

  Actual Average Record
Temperature  
Mean Temperature 44 °F 47 °F  
Max Temperature 48 °F 55 °F 68 °F (1989)
Min Temperature 39 °F 40 °F 26 °F (1948)
Degree Days  
Heating Degree Days 21 18  
Month to date heating degree days 96 150  
Cooling Degree Days 0 0  
Month to date cooling degree days 0 0  
Moisture  
Dew Point 38 °F    
Average Humidity 78    
Maximum Humidity 89    
Minimum Humidity 66    
Precipitation  
Precipitation 0.02 in 0.26 in 1.43 in (1968)
Month to date precipitation 1.08 2.09  
Year to date precipitation 37.13 34.61  
Snow  
Snow 0.00 in - - ()
Month to date snowfall 0.0  
Snow Depth 0.00 in    
Sea Level Pressure  
Sea Level Pressure 29.88 in    
Wind  
Wind Speed 2 mph (SSE)    
Max Wind Speed 7 mph    
Max Gust Speed 10 mph    
Visibility 10 miles    
Events Rain    
T = Trace of Precipitation, MM = Missing Value Source: NWS Daily Summary

Daily Weather History Graph

Daily Weather History Graph

Search for Another Location

Airport or City:

Trip Planner

Search our weather history database for the weather conditions in past years. The results will help you decide how hot, cold, wet, or windy it might be!

Date:

Astronomy

Nov. 09, 2012 Rise Set
Actual Time 7:01 AM PST 4:45 PM PST
Civil Twilight 6:29 AM PST 5:16 PM PST
Nautical Twilight 5:54 AM PST 5:52 PM PST
Astronomical Twilight 5:19 AM PST 6:27 PM PST
Moon 1:52 AM PST (11/9) 2:12 PM PST (11/9)
Length of Visible Light 10h 47m
Length of Day
9h 43m
Waning Crescent, 22% of the Moon is Illuminated
Nov 9
Waning Crescent
Nov 13
New
Nov 20
First Quarter
Nov 28
Full
Dec 6
Last Quarter

Hourly Weather History & Observations

Time (PST) Temp. Windchill Dew Point Humidity Pressure Visibility Wind Dir Wind Speed Gust Speed Precip Events Conditions
12:15 AM 44.6 °F - 39.2 °F 81% 29.84 in 10.0 mi Calm Calm - N/A   Overcast
12:53 AM 44.1 °F - 39.9 °F 85% 29.85 in 10.0 mi Calm Calm - N/A   Overcast
1:53 AM 44.1 °F 41.5 °F 39.0 °F 82% 29.86 in 10.0 mi SW 4.6 mph - N/A   Overcast
2:53 AM 44.1 °F - 37.9 °F 79% 29.86 in 10.0 mi Calm Calm - N/A   Overcast
3:53 AM 44.1 °F - 37.9 °F 79% 29.87 in 10.0 mi Calm Calm - N/A   Overcast
4:06 AM 44.6 °F - 37.4 °F 76% 29.87 in 10.0 mi Calm Calm - N/A   Overcast
4:53 AM 43.0 °F - 39.0 °F 86% 29.87 in 10.0 mi Calm Calm - N/A   Overcast
5:27 AM 42.8 °F 41.1 °F 37.4 °F 81% 29.87 in 10.0 mi West 3.5 mph - N/A   Overcast
5:53 AM 43.0 °F - 39.0 °F 86% 29.87 in 10.0 mi Calm Calm - N/A   Overcast
6:06 AM 42.8 °F 41.1 °F 39.2 °F 87% 29.87 in 10.0 mi WSW 3.5 mph - N/A   Overcast
6:53 AM 43.0 °F - 39.0 °F 86% 29.88 in 10.0 mi Calm Calm - N/A   Overcast
7:53 AM 44.1 °F 42.5 °F 39.0 °F 82% 29.89 in 8.0 mi West 3.5 mph - N/A   Overcast
8:53 AM 44.1 °F 42.5 °F 37.9 °F 79% 29.90 in 8.0 mi West 3.5 mph - N/A   Overcast
9:53 AM 44.1 °F 42.5 °F 37.9 °F 79% 29.90 in 9.0 mi Variable 3.5 mph - N/A   Mostly Cloudy
10:53 AM 44.1 °F - 37.9 °F 79% 29.91 in 8.0 mi Calm Calm - 0.00 in Rain Light Rain
11:11 AM 44.6 °F - 37.4 °F 76% 29.90 in 9.0 mi Calm Calm - 0.00 in Rain Light Rain
11:53 AM 44.1 °F - 39.0 °F 82% 29.89 in 5.0 mi Calm Calm - 0.00 in Rain Light Rain
12:53 PM 45.0 °F - 37.0 °F 74% 29.87 in 6.0 mi Calm Calm - 0.02 in   Haze
1:00 PM 46.4 °F - 37.4 °F 71% 29.87 in 10.0 mi Calm Calm - N/A   Scattered Clouds
1:53 PM 46.0 °F - 37.0 °F 71% 29.86 in 10.0 mi Calm Calm - N/A   Mostly Cloudy
2:26 PM 46.4 °F - 37.4 °F 71% 29.86 in 10.0 mi Calm Calm - N/A   Scattered Clouds
2:53 PM 48.0 °F - 37.9 °F 68% 29.86 in 10.0 mi Calm Calm - N/A   Clear
3:53 PM 46.9 °F - 37.0 °F 68% 29.86 in 10.0 mi Calm Calm - N/A   Overcast
4:39 PM 44.6 °F 43.1 °F 39.2 °F 81% 29.85 in 10.0 mi East 3.5 mph - N/A   Overcast
4:53 PM 45.0 °F 41.8 °F 37.9 °F 76% 29.86 in 10.0 mi SE 5.8 mph - N/A   Overcast
5:41 PM 44.6 °F 41.4 °F 37.4 °F 76% 29.87 in 10.0 mi SSE 5.8 mph - N/A   Mostly Cloudy
5:53 PM 43.0 °F - 37.0 °F 80% 29.87 in 10.0 mi Calm Calm - N/A   Mostly Cloudy
6:53 PM 42.1 °F 40.2 °F 36.0 °F 79% 29.88 in 10.0 mi SSE 3.5 mph - N/A   Mostly Cloudy
7:53 PM 39.9 °F - 36.0 °F 86% 29.89 in 10.0 mi Calm Calm - N/A   Scattered Clouds
8:32 PM 39.2 °F 35.0 °F 35.6 °F 87% 29.90 in 10.0 mi SSE 5.8 mph - N/A   Overcast
8:46 PM 41.0 °F - 35.6 °F 81% 29.90 in 10.0 mi Calm Calm - N/A   Overcast
8:53 PM 41.0 °F - 36.0 °F 82% 29.91 in 10.0 mi Calm Calm - N/A   Overcast
9:28 PM 41.0 °F 38.0 °F 35.6 °F 81% 29.91 in 10.0 mi ESE 4.6 mph - N/A   Overcast
9:53 PM 39.9 °F 37.8 °F 36.0 °F 86% 29.91 in 10.0 mi SE 3.5 mph - N/A   Overcast
10:28 PM 39.2 °F - 35.6 °F 87% 29.92 in 10.0 mi Calm Calm - N/A   Overcast
10:53 PM 41.0 °F 38.0 °F 36.0 °F 82% 29.92 in 10.0 mi SE 4.6 mph - N/A   Overcast
11:53 PM 41.0 °F 39.0 °F 36.0 °F 82% 29.94 in 10.0 mi SE 3.5 mph - N/A   Overcast